GW1335 Weather Reports


time (UTC)temp
C
wind
direction
speed
KPH
gust
KPH
rain 1hr
cm
rain 24hr
cm
rain mn
cm
humidity
%
barometer
mb
20260905204558 33 288 6.4 11.3 0.00 0.66 0.66 49 1012.0
20260905203111 34 272 0.0 4.8 0.00 0.66 0.66 50 1012.1
20260905201559 34 39 3.2 8.0 0.00 0.66 0.66 48 1012.4
20260905200105 33 280 1.6 4.8 0.00 0.66 0.66 50 1012.7
20260905194600 33 0 1.6 9.7 0.00 0.66 0.66 51 1012.9
20260905193103 33 0 0.0 4.8 0.00 0.66 0.66 54 1013.0
20260905191557 32 0 0.0 6.4 0.00 0.66 0.66 52 1013.2
20260905184611 32 72 1.6 4.8 0.00 0.66 0.66 52 1013.5
20260905183103 32 0 1.6 4.8 0.00 0.66 0.66 54 1013.9
20260905181600 31 86 0.0 4.8 0.00 0.66 0.66 53 1014.1
20260905180108 31 0 1.6 4.8 0.00 0.66 0.66 55 1014.3
20260905174605 31 0 0.0 4.8 0.00 0.66 0.66 56 1014.2
20260905173058 31 117 1.6 8.0 0.00 0.66 0.66 57 1014.2
20260905171635 30 0 1.6 8.0 0.00 0.66 0.66 57 1014.3
20260905170106 30 0 0.0 3.2 0.00 0.66 0.66 59 1014.6
20260905164602 30 105 0.0 4.8 0.00 0.66 0.66 62 1014.9
20260905163057 29 0 3.2 8.0 0.00 0.66 0.66 62 1015.1
20260905161601 28 134 1.6 6.4 0.00 0.66 0.66 64 1015.1
20260905160110 28 216 1.6 6.4 0.00 0.66 0.66 68 1015.0
20260905154620 27 154 0.0 4.8 0.00 0.66 0.66 68 1015.1
20260905153104 27 0 1.6 4.8 0.00 0.66 0.66 72 1015.2
20260905151557 26 0 0.0 6.4 0.00 0.66 0.66 77 1015.2
20260905150107 25 20 1.6 4.8 0.00 0.66 0.66 80 1015.3
20260905144610 25 101 1.6 8.0 0.00 0.66 0.66 83 1015.5
20260905143105 24 98 1.6 8.0 0.00 0.66 0.66 85 1015.7
20260905141602 23 100 1.6 6.4 0.00 0.66 0.66 90 1015.6
20260905140105 23 89 1.6 4.8 0.00 0.66 0.66 93 1015.7
20260905134607 23 114 0.0 8.0 0.53 0.66 0.66 93 1016.0
20260905133106 22 297 0.0 11.3 0.56 0.66 0.66 94 1016.1
20260905131602 22 0 0.0 6.4 0.56 0.66 0.66 94 1016.2
20260905130059 22 18 0.0 12.9 0.56 0.66 0.66 92 1016.0
20260905124556 22 13 3.2 9.7 0.03 0.13 0.13 91 1016.1
20260905123106 22 10 0.0 3.2 0.10 0.10 0.10 91 1015.5
20260905121607 22 0 0.0 3.2 0.10 0.10 0.10 90 1015.2
20260905120100 23 95 1.6 3.2 0.10 0.10 0.10 89 1015.1
20260905114609 24 0 1.6 4.8 0.10 0.10 0.10 85 1015.0
20260905113056 25 0 0.0 1.6 0.00 0.00 0.00 81 1014.8
20260905111627 25 309 3.2 9.7 0.00 0.00 0.00 82 1014.6
20260905110108 25 0 3.2 11.3 0.00 0.00 0.00 83 1014.4
20260905104614 25 23 1.6 3.2 0.00 0.00 0.00 85 1014.1
20260905103102 25 0 0.0 0.0 0.00 0.00 0.00 84 1013.5
20260905101558 25 0 0.0 0.0 0.00 0.00 0.00 83 1013.5
20260905100058 26 0 0.0 0.0 0.00 0.00 0.00 82 1013.7
20260905094719 26 0 0.0 0.0 0.00 0.00 0.00 81 1013.8
20260905093121 26 0 0.0 0.0 0.00 0.00 0.00 79 1013.8
20260905091603 26 0 0.0 0.0 0.00 0.00 0.00 79 1013.5
20260905090100 26 0 0.0 1.6 0.00 0.00 0.00 82 1013.6
20260905084607 26 0 0.0 4.8 0.00 0.00 0.00 82 1013.7
20260905083055 26 0 0.0 0.0 0.00 0.00 0.00 82 1013.3
20260905081605 26 0 0.0 1.6 0.00 0.00 0.00 81 1013.6
20260905080121 26 0 0.0 4.8 0.00 0.00 0.00 81 1013.5
20260905074606 26 0 0.0 0.0 0.00 0.00 0.00 80 1013.2
20260905073111 26 0 0.0 0.0 0.00 0.00 0.00 80 1013.4
20260905071557 26 0 0.0 0.0 0.00 0.00 0.00 80 1013.5
20260905070058 26 0 0.0 0.0 0.00 0.00 0.00 80 1013.7
20260905064608 26 0 0.0 0.0 0.00 0.00 0.00 81 1013.9
20260905063108 26 0 0.0 0.0 0.00 0.00 0.00 81 1014.1
20260905061607 26 0 0.0 0.0 0.00 0.00 0.00 82 1014.3
20260905060110 26 0 0.0 0.0 0.00 0.00 0.00 83 1014.5
20260905054607 26 0 0.0 0.0 0.00 0.00 0.00 83 1014.6
20260905053101 27 0 0.0 0.0 0.00 0.00 0.00 83 1014.6
20260905051610 27 0 0.0 0.0 0.00 0.00 0.00 82 1014.6
20260905050105 27 0 0.0 0.0 0.00 0.00 0.00 81 1014.6
20260905044605 27 0 0.0 0.0 0.00 0.00 0.00 80 1014.8
20260905043102 27 0 0.0 0.0 0.00 0.00 0.00 78 1014.7
20260905041610 27 0 0.0 0.0 0.00 0.00 0.00 76 1014.7
20260905040111 27 0 0.0 0.0 0.00 0.00 0.00 76 1014.7
20260905034603 28 0 0.0 0.0 0.00 0.00 0.00 75 1014.6
20260905033107 28 0 0.0 0.0 0.00 0.00 0.00 74 1014.8
20260905031555 28 0 0.0 0.0 0.00 0.00 0.00 73 1014.9
20260905030111 28 0 0.0 0.0 0.00 0.00 0.00 71 1015.0
20260905024607 28 0 0.0 0.0 0.00 0.00 0.00 70 1015.0
20260905023059 29 0 0.0 0.0 0.00 0.00 0.00 68 1014.8
20260905021603 29 0 0.0 0.0 0.00 0.00 0.00 67 1014.8
20260905020108 30 0 0.0 0.0 0.00 0.00 0.00 66 1014.7
20260905014600 30 0 0.0 0.0 0.00 0.00 0.00 66 1014.6
20260905013121 30 0 0.0 0.0 0.00 0.00 0.00 64 1014.4
20260905011607 31 0 0.0 0.0 0.00 0.00 0.00 63 1014.2
20260905010106 31 0 0.0 0.0 0.00 0.00 0.00 63 1014.1
20260905004559 31 0 0.0 0.0 0.00 0.00 0.00 63 1013.9
20260905003103 31 0 0.0 0.0 0.00 0.00 0.00 62 1014.0
20260905001604 32 0 0.0 0.0 0.00 0.00 0.00 59 1013.7
20260905000101 32 0 0.0 0.0 0.00 0.00 0.00 56 1013.7
20260904234600 33 0 0.0 0.0 0.00 0.00 0.00 54 1013.6
20260904233106 33 0 0.0 0.0 0.00 0.00 0.00 52 1013.7
20260904231601 34 0 0.0 0.0 0.00 0.00 0.00 49 1013.8
20260904230111 34 0 1.6 4.8 0.00 0.00 0.00 48 1013.8
20260904224621 35 0 0.0 4.8 0.00 0.00 0.00 49 1014.0
20260904223109 35 60 1.6 8.0 0.00 0.00 0.00 48 1014.1
20260904221625 35 0 0.0 6.4 0.00 0.00 0.00 47 1014.1
20260904220106 35 0 0.0 3.2 0.00 0.00 0.00 47 1014.1
20260904214601 35 0 0.0 4.8 0.00 0.00 0.00 48 1014.2
20260904213108 35 8 0.0 4.8 0.00 0.00 0.00 48 1014.4
20260904211604 35 3 1.6 9.7 0.00 0.00 0.00 47 1014.3
20260904210111 35 30 1.6 8.0 0.00 0.00 0.00 47 1014.3